Location: Unspecified
(0.0000°N, 0.0000°E)
Time: 11:22:41
(UTC+00:00)

Explorer 11/Cluster Stage 4 - Pass Details

Date: 05 October 2020
Orbit: 467 x 1258 km, 28.8° (Epoch: 28 October)

Event Time Altitude Azimuth Distance (km) Brightness Sun altitude
Rises 05:12:59 0° 306° (NW) 3,773 - -8.8°
Exits shadow 05:14:09 - 307° (NW) 3,382 9.3 -8.5°
Reaches altitude 10° 05:15:33 10° 308° (NW) 2,920 9.0 -8.2°
Maximum altitude 05:22:57 71° 31° (NNE) 1,259 7.7 -6.3°
Drops below altitude 10° 05:31:11 10° 114° (ESE) 3,230 11.2 -4.3°
Sets 05:34:10 0° 116° (ESE) 4,194 11.9 -3.5°
